Location: Central Coast NSW, Australia
(33.2407°S, 151.4316°E)
Time: 22:24:19
(UTC+10:00)

ISS - Visible Passes

Search period start: 03 August 2020 00:00
Search period end: 13 August 2020 00:00
Orbit: 419 x 420 km, 51.6° (Epoch: 04 August)

Date Brightness Start Highest point End Pass type
(mag) Time Alt. Az. Time Alt. Az. Time Alt. Az.
07 Aug -1.3 06:00:39 10° S 06:03:01 17° SSE 06:05:22 10° ESE visible
08 Aug -0.9 05:13:55 10° S 05:15:12 12° SSE 05:16:29 10° SE visible
09 Aug -2.8 06:01:31 10° SW 06:04:51 45° SE 06:08:07 10° ENE visible
10 Aug -1.9 05:15:14 17° S 05:17:09 26° SE 05:20:05 10° E visible
11 Aug -1.1 04:29:50 17° SE 04:29:50 17° SE 04:31:42 10° ESE visible
11 Aug -3.3 06:03:02 10° WSW 06:06:20 46° NW 06:09:36 10° NNE visible
12 Aug -3.8 05:17:31 37° SW 05:18:46 87° SE 05:22:09 10° NE visible
